Location: ????????
(38.0452°N, 22.8891°E)
Time: 17:23:49
(UTC+00:00)

Daily predictions for brighter satellites

Satellite Brightness Start Highest point End
(mag) Time Altitude Azimuth Time Altitude Azimuth Time Altitude Azimuth
Cosmos 2263 Rocket 2.4 15:37:56 10° S 15:43:27 57° ESE 15:49:02 10° NNE
H-2A R/B 4.4 15:44:11 10° SSW 15:46:13 24° W 15:48:16 10° NW
CZ-2D R/B 3.9 15:46:10 10° S 15:49:33 54° W 15:52:59 10° NNW
AQUARIUS 4.4 15:45:46 10° SE 15:49:58 44° ENE 15:54:11 10° N
Lacrosse 4 Rocket 2.2 15:46:06 10° S 15:49:59 35° ESE 15:53:54 10° NE
Tiangong -1.9 15:47:55 10° W 15:51:05 63° NNW 15:54:14 10° ENE
ADEOS Rocket 3.8 15:44:58 10° S 15:52:38 80° WSW 16:00:26 10° NNW
Milstar 3 Cent rocket 4.2 15:49:28 10° WSW 15:54:20 23° SSW 15:58:07 10° SSE
USA 276 2.6 15:53:26 10° NNW 15:54:57 19° NNE 15:55:56 13° ENE
Spot 4 Rocket 4.0 15:52:13 10° SSE 15:57:18 79° ENE 16:02:26 10° N
Cosmos 2098 Rocket 3.7 15:54:12 10° S 16:00:07 61° E 16:05:17 10° NNE
SMAP 3.1 15:56:11 10° SSE 16:00:50 88° ENE 16:05:30 10° NNW
Cosmos 2082 3.8 15:55:55 10° S 16:01:34 65° ESE 16:07:14 10° NNE
Nadezhda 1 Rocket 4.4 15:56:16 10° SSE 16:02:11 43° E 16:08:02 10° NNE
Cosmos 2297 Rocket 4.4 15:58:19 10° WSW 16:02:32 21° NW 16:06:47 10° N
Cosmos 2227 Rocket 3.5 15:57:34 10° SW 16:02:52 41° WNW 16:08:12 10° N
ACS3 Solar Sail 3.6 16:04:17 10° NE 16:04:17 10° NE 16:04:23 10° NE
H-2A R/B 4.4 15:48:47 10° W 16:04:55 36° SSW 16:08:51 10° SE
Cosmos 1238 4.4 16:04:52 10° S 16:07:57 58° E 16:11:38 10° NNE
Sich 1 Rocket 3.7 16:03:45 10° S 16:08:06 80° W 16:12:31 10° N
Cosmos 2084 3.2 16:07:03 10° NNW 16:10:48 56° NE 16:14:32 10° SE
CZ-2C R/B 4.0 16:12:23 16° E 16:13:03 17° ENE 16:15:29 10° NNE
Cosmos 371 Rocket 3.2 16:09:23 10° SSW 16:14:08 84° ESE 16:18:56 10° NNE
Okean 2 Rocket 3.6 16:09:43 10° SSW 16:14:09 64° W 16:18:38 10° N
SKYMED 2 3.8 16:11:15 10° NNE 16:15:27 47° E 16:19:39 10° S
Cosmos 1455 Rocket 3.6 16:12:06 10° SSE 16:16:06 35° E 16:20:07 10° NNE
Cosmos 44 Rocket 3.5 16:14:11 10° SW 16:19:07 71° WNW 16:23:57 10° NNE
USA 307 4.4 16:17:13 10° WNW 16:19:46 20° NNW 16:22:36 10° NNE
Cosmos 1869 3.9 16:17:03 10° SSE 16:20:15 29° E 16:22:38 15° NE
Cosmos 2074 Rocket 4.0 16:15:23 10° N 16:21:42 81° E 16:28:00 10° S
SJ 16-02 4.0 16:20:50 10° WSW 16:23:34 16° WNW 16:26:19 10° NNW
SL-16 R/B 2.1 16:18:25 10° NNW 16:24:07 84° ENE 16:29:47 10° SSE
IGS 5A 3.2 16:22:32 10° SSE 16:26:33 78° ENE 16:30:36 10° N
Cosmos 1606 2.4 16:23:39 10° S 16:26:59 57° E 16:30:21 10° NNE
USA 229 DEB 4.5 16:23:16 10° SSE 16:27:53 24° ESE 16:29:49 20° E
USA 229 4.5 16:23:25 10° SSE 16:28:01 23° ESE 16:29:55 20° E
Cosmos 2184 Rocket 4.0 16:24:55 10° N 16:31:11 89° W 16:37:22 10° S
YAOGAN 1 3.3 16:29:08 10° SE 16:32:48 29° ENE 16:36:28 10° N
Cosmos 2219 4.3 16:31:48 10° SW 16:37:16 44° WNW 16:42:45 10° N
Cosmos 2208 Rocket 4.3 16:32:43 10° N 16:37:41 41° ENE 16:42:34 10° SE
NOAA 6 4.2 16:34:08 10° SE 16:39:05 48° ENE 16:44:01 10° N
Landsat 7 3.9 16:34:45 10° SSE 16:39:16 49° ENE 16:43:47 10° N
Okean 1 Rocket 4.1 16:36:10 10° SSW 16:40:23 47° W 16:44:41 10° N
Cosmos 1844 Rocket 3.4 16:36:02 10° SSE 16:40:59 32° ESE 16:42:38 27° ENE
MOS 1-B Rocket 4.0 16:35:51 10° SSE 16:41:57 53° ENE 16:47:29 10° N
Cosmos 2058 2.8 16:38:30 10° N 16:42:23 53° E 16:46:15 10° SSE
CZ-4 R/B 4.2 16:40:01 10° SSE 16:44:02 83° ENE 16:48:05 10° N
Cosmos 1610 Rocket 4.3 16:40:24 10° N 16:46:33 76° E 16:52:39 10° S
ISS -3.8 16:43:46 10° SW 16:47:09 80° NW 16:47:56 50° NE
OAO 3 Rocket 3.5 16:43:55 10° W 16:48:42 61° S 16:50:50 32° ESE
Meteor 2-1 Rocket 4.3 16:45:14 10° S 16:51:06 64° E 16:56:56 10° NNE
Meteor 1-31 Rocket 2.5 16:47:32 10° SSE 16:51:11 81° ENE 16:54:53 10° N
Cosmos 2327 Rocket 4.5 16:48:14 10° N 16:54:38 67° E 17:00:59 10° SSE
Cosmos 1486 Rocket 3.9 16:53:27 10° SSW 16:58:39 88° ESE 17:02:39 17° NNE
Cosmos 1503 Rocket 4.1 16:53:34 10° S 16:58:44 54° ESE 17:00:41 35° NE
YAOGAN 11 4.1 16:56:20 11° NNE 17:00:40 88° ESE 17:05:08 10° SSW
Cosmos 1892 Rocket 3.4 16:56:23 10° N 17:00:43 88° E 17:05:00 10° S
GEOS 3 Rocket 3.9 16:58:18 19° NNE 17:01:57 66° NW 17:07:00 10° SW
Cosmos 1932 4.5 16:57:01 10° NNW 17:03:11 58° NE 17:06:03 32° ESE
Cosmos 773 Rocket 4.4 16:58:27 10° N 17:02:34 39° NE 17:02:34 39° NE
COSMO-SKYMED 1 3.6 16:59:21 10° N 17:03:31 46° WNW 17:07:39 10° SW
USA 234 3.4 17:01:21 22° NE 17:05:49 69° NW 17:12:17 10° WSW
ATLAS 3B R/B 2.8 16:58:49 10° SSW 17:05:54 85° WNW 17:11:42 19° NNE
Cosmos 836 Rocket 4.3 17:02:12 10° NNW 17:07:23 72° ENE 17:11:09 19° SSE
CZ-4C R/B 3.1 17:00:16 10° NNW 17:07:52 89° NE 17:16:51 10° SSE
Radarsat Rocket 4.3 17:06:15 10° SSE 17:12:35 84° WSW 17:19:50 10° NNW
SL-8 Rocket 4.0 17:06:44 10° N 17:12:58 58° E 17:19:09 10° SSE
NOSS 3-1 (A) 4.2 17:09:11 10° WSW 17:13:36 37° NW 17:17:22 17° NNE
Cosmos 1943 3.0 17:14:28 10° NNW 17:20:11 78° ENE 17:22:10 42° SE
CZ-3B R/B 3.5 17:01:25 10° NW 17:21:13 62° NNE 17:22:57 48° E
Cosmos 1844 3.5 17:21:53 10° SSW 17:27:21 71° ESE 17:27:21 71° ESE
Cosmos 2263 Rocket 4.5 17:23:34 10° WSW 17:27:44 21° NW 17:31:56 10° N
USA 281 3.2 17:22:06 14° NNE 17:27:49 78° WNW 17:34:22 10° SSW
Lacrosse 4 Rocket 3.7 17:24:53 10° WSW 17:28:11 21° NW 17:30:39 14° NNW
Tiangong 0.3 17:25:11 10° WNW 17:26:31 21° WNW 17:26:31 21° WNW
Milstar 3 4.2 17:19:29 10° SW 17:31:02 35° S 17:33:46 29° SE
ATLAS 5 CENTAUR R/B 4.2 17:35:33 10° N 17:35:59 12° N 17:35:59 12° N
Cosmos 1354 Rocket 4.2 17:37:11 10° SSW 17:41:51 69° SW 17:41:51 69° SW
ACS3 Solar Sail 2.7 17:49:14 37° N 17:49:14 37° N 17:52:55 10° N
Meteor 2-3 Rocket 3.8 17:41:31 10° NNW 17:47:07 74° W 17:47:33 70° SW
USA 229 DEB 4.2 18:12:20 10° SW 18:17:18 49° W 18:17:18 49° W
USA 229 4.2 18:12:26 10° SW 18:17:24 50° W 18:17:24 50° W
CZ-3 Stage 3 4.2 17:40:31 10° WSW 18:19:55 60° S 18:21:51 55° SSE
Cosmos 1844 Rocket 4.2 18:19:41 10° WSW 18:24:20 33° WNW 18:24:20 33° WNW
CENTAUR R/B 4.4 18:44:14 10° NNW 18:48:05 30° NNW 18:48:05 30° NNW
